Weather History for KPQN - November, 2013

Change the Weather History Date:

Monday, November 11, 2013

  Actual Average Record
Temperature  
Mean Temperature 20 °F -  
Max Temperature 35 °F 42 °F 66 °F (2005)
Min Temperature 6 °F 24 °F 5 °F (1999)
Degree Days  
Heating Degree Days 44    
Moisture  
Dew Point 10 °F    
Average Humidity 73    
Maximum Humidity 93    
Minimum Humidity 58    
Precipitation  
Precipitation 0.00 in - - ()
Sea Level Pressure  
Sea Level Pressure 30.46 in    
Wind  
Wind Speed 15 mph (NNE)    
Max Wind Speed 25 mph    
Max Gust Speed 34 mph    
Visibility 9 miles    
Events Snow    
Averages and records for this station are not official NWS values.
T = Trace of Precipitation, MM = Missing Value Source: NWS Daily Summary

Daily Weather History Graph

Daily Weather History Graph

Search for Another Location

Airport or City:

Trip Planner

Search our weather history database for the weather conditions in past years. The results will help you decide how hot, cold, wet, or windy it might be!

Date:

Astronomy

Nov. 11, 2013 Rise Set
Actual Time 7:15 AM CST 5:02 PM CST
Civil Twilight 6:44 AM CST 5:33 PM CST
Nautical Twilight 6:09 AM CST 6:08 PM CST
Astronomical Twilight 5:35 AM CST 6:42 PM CST
Moon 1:55 PM CST (11/11) 12:49 AM CST (11/11)
Length of Visible Light 10h 49m
Length of Day
9h 47m
Waxing Gibbous, 66% of the Moon is Illuminated
Nov 11
Waxing Gibbous
Nov 17
Full
Nov 25
Last Quarter
Dec 2
New
Dec 9
First Quarter

Hourly Weather History & Observations

Time (CST) Temp. Windchill Dew Point Humidity Pressure Visibility Wind Dir Wind Speed Gust Speed Precip Events Conditions
12:13 AM 35.6 °F 24.2 °F 28.4 °F 75% 30.12 in 10.0 mi NNE 21.9 mph - N/A   Scattered Clouds
12:33 AM 33.8 °F 22.5 °F 28.4 °F 81% 30.13 in 10.0 mi NNE 19.6 mph 23.0 mph N/A   Overcast
12:53 AM 30.2 °F 19.8 °F 28.4 °F 93% 30.14 in 7.0 mi NNE 13.8 mph 27.6 mph N/A   Overcast
1:13 AM 28.4 °F 16.2 °F 26.6 °F 93% 30.14 in 10.0 mi NNE 17.3 mph 26.5 mph N/A   Overcast
1:33 AM 28.4 °F 16.6 °F 24.8 °F 86% 30.15 in 7.0 mi NNE 16.1 mph 21.9 mph N/A   Overcast
1:53 AM 26.6 °F 13.1 °F 23.0 °F 86% 30.17 in 10.0 mi NNE 19.6 mph 32.2 mph N/A   Mostly Cloudy
2:13 AM 24.8 °F 11.9 °F 19.4 °F 80% 30.20 in 10.0 mi NNE 16.1 mph 24.2 mph N/A   Mostly Cloudy
2:33 AM 24.8 °F 11.1 °F 14.0 °F 64% 30.20 in 10.0 mi NNE 18.4 mph 25.3 mph N/A   Scattered Clouds
2:53 AM 24.8 °F 12.9 °F 12.2 °F 59% 30.21 in 10.0 mi NNE 13.8 mph 25.3 mph N/A   Mostly Cloudy
3:13 AM 23.0 °F 8.0 °F 10.4 °F 59% 30.21 in 10.0 mi NNE 20.7 mph 26.5 mph N/A   Overcast
3:33 AM 21.2 °F 4.2 °F 10.4 °F 63% 30.20 in 7.0 mi NE 25.3 mph 33.4 mph N/A   Overcast
3:53 AM 21.2 °F 4.9 °F 10.4 °F 63% 30.23 in 10.0 mi NNE 23.0 mph 33.4 mph N/A   Mostly Cloudy
4:13 AM 19.4 °F 4.1 °F 10.4 °F 68% 30.25 in 10.0 mi NNE 18.4 mph 34.5 mph N/A   Mostly Cloudy
4:33 AM 19.4 °F 2.5 °F 12.2 °F 74% 30.26 in 10.0 mi NNE 23.0 mph 27.6 mph N/A   Mostly Cloudy
4:53 AM 19.4 °F 4.5 °F 12.2 °F 74% 30.27 in 7.0 mi NNE 17.3 mph 31.1 mph N/A Snow Light Snow
5:13 AM 17.6 °F 2.7 °F 12.2 °F 79% 30.30 in 1.8 mi NNE 16.1 mph 27.6 mph N/A Snow Light Snow
5:33 AM 17.6 °F 2.7 °F 14.0 °F 86% 30.30 in 1.0 mi NNE 16.1 mph 21.9 mph N/A Snow Light Snow
5:53 AM 17.6 °F 3.7 °F 14.0 °F 86% 30.31 in 1.0 mi NNE 13.8 mph 21.9 mph N/A Snow Light Snow
6:13 AM 17.6 °F 2.2 °F 12.2 °F 79% 30.32 in 1.0 mi NNE 17.3 mph 25.3 mph N/A Snow Light Snow
6:33 AM 17.6 °F 4.3 °F 12.2 °F 79% 30.33 in 1.2 mi North 12.7 mph 20.7 mph N/A Snow Light Snow
6:53 AM 17.6 °F 3.2 °F 12.2 °F 79% 30.34 in - NNE 15.0 mph 24.2 mph N/A   Unknown
7:13 AM 15.8 °F 1.4 °F 12.2 °F 86% 30.35 in - NNE 13.8 mph 19.6 mph N/A   Overcast
7:33 AM 17.6 °F 5.0 °F 10.4 °F 73% 30.37 in - NNE 11.5 mph 18.4 mph N/A   Unknown
7:53 AM 17.6 °F 3.7 °F 8.6 °F 68% 30.38 in - NNE 13.8 mph 20.7 mph N/A   Scattered Clouds
8:13 AM 17.6 °F 3.7 °F 8.6 °F 68% 30.39 in - NNE 13.8 mph 24.2 mph N/A   Clear
8:33 AM 17.6 °F 2.2 °F 8.6 °F 68% 30.40 in - NNE 17.3 mph 27.6 mph N/A   Clear
8:54 AM 15.8 °F 2.1 °F 8.6 °F 73% 30.41 in 10.0 mi NNE 12.7 mph 25.3 mph N/A   Clear
9:13 AM 15.8 °F 0.3 °F 8.6 °F 73% 30.42 in 7.0 mi NNE 16.1 mph 24.2 mph N/A   Clear
9:33 AM 15.8 °F 1.4 °F 8.6 °F 73% 30.43 in 10.0 mi NNE 13.8 mph 25.3 mph N/A   Clear
9:53 AM 15.8 °F 0.9 °F 8.6 °F 73% 30.44 in 7.0 mi NNE 15.0 mph 23.0 mph N/A   Clear
10:13 AM 15.8 °F 1.4 °F 8.6 °F 73% 30.46 in 10.0 mi NNE 13.8 mph 18.4 mph N/A   Clear
10:33 AM 17.6 °F 3.2 °F 8.6 °F 68% 30.46 in 10.0 mi NNE 15.0 mph 21.9 mph N/A   Clear
10:53 AM 15.8 °F 2.1 °F 8.6 °F 73% 30.47 in 10.0 mi NNE 12.7 mph 19.6 mph N/A   Scattered Clouds
11:13 AM 19.4 °F 6.6 °F 10.4 °F 68% 30.48 in 10.0 mi North 12.7 mph 19.6 mph N/A   Clear
11:33 AM 17.6 °F 2.7 °F 8.6 °F 68% 30.48 in 10.0 mi NNE 16.1 mph 21.9 mph N/A   Clear
11:54 AM 19.4 °F 5.5 °F 8.6 °F 63% 30.49 in 10.0 mi North 15.0 mph 21.9 mph N/A   Clear
12:13 PM 19.4 °F 5.5 °F 8.6 °F 63% 30.49 in 10.0 mi NNE 15.0 mph 20.7 mph N/A   Clear
12:33 PM 19.4 °F 6.0 °F 6.8 °F 58% 30.50 in 7.0 mi North 13.8 mph 25.3 mph N/A   Clear
12:53 PM 19.4 °F 7.2 °F 8.6 °F 63% 30.49 in 10.0 mi NNE 11.5 mph 18.4 mph N/A   Clear
1:13 PM 19.4 °F 7.9 °F 8.6 °F 63% 30.50 in 10.0 mi NNE 10.4 mph 21.9 mph N/A   Clear
1:34 PM 19.4 °F 6.0 °F 8.6 °F 63% 30.51 in 10.0 mi North 13.8 mph 20.7 mph N/A   Clear
1:53 PM 19.4 °F 7.2 °F 8.6 °F 63% 30.52 in 10.0 mi North 11.5 mph 20.7 mph N/A   Clear
2:13 PM 19.4 °F 6.0 °F 8.6 °F 63% 30.52 in 10.0 mi NNE 13.8 mph 20.7 mph N/A   Clear
2:33 PM 19.4 °F 7.9 °F 6.8 °F 58% 30.53 in 10.0 mi North 10.4 mph 20.7 mph N/A   Clear
2:53 PM 19.4 °F 7.2 °F 8.6 °F 63% 30.54 in 10.0 mi North 11.5 mph 19.6 mph N/A   Clear
3:13 PM 19.4 °F 7.9 °F 8.6 °F 63% 30.54 in 10.0 mi North 10.4 mph 17.3 mph N/A   Clear
3:33 PM 19.4 °F 7.9 °F 6.8 °F 58% 30.54 in 10.0 mi North 10.4 mph - N/A   Clear
3:53 PM 19.4 °F 7.2 °F 6.8 °F 58% 30.55 in 10.0 mi North 11.5 mph 18.4 mph N/A   Clear
4:13 PM 19.4 °F 7.2 °F 6.8 °F 58% 30.56 in 10.0 mi North 11.5 mph 17.3 mph N/A   Clear
4:33 PM 17.6 °F 6.4 °F 6.8 °F 63% 30.57 in 10.0 mi North 9.2 mph - N/A   Clear
4:53 PM 17.6 °F 8.2 °F 6.8 °F 63% 30.58 in 10.0 mi North 6.9 mph - N/A   Clear
5:13 PM 15.8 °F 6.1 °F 6.8 °F 68% 30.59 in 10.0 mi North 6.9 mph - N/A   Clear
5:33 PM 15.8 °F 6.1 °F 6.8 °F 68% 30.60 in 10.0 mi North 6.9 mph - N/A   Clear
5:53 PM 15.8 °F 5.1 °F 6.8 °F 68% 30.60 in 10.0 mi North 8.1 mph - N/A   Clear
6:13 PM 14.0 °F 3.9 °F 6.8 °F 73% 30.61 in 10.0 mi North 6.9 mph - N/A   Clear
6:33 PM 12.2 °F 0.7 °F 6.8 °F 79% 30.62 in 10.0 mi North 8.1 mph - N/A   Clear
6:53 PM 12.2 °F 0.7 °F 6.8 °F 79% 30.63 in 10.0 mi North 8.1 mph - N/A   Clear
7:13 PM 12.2 °F 0.7 °F 6.8 °F 79% 30.64 in 10.0 mi North 8.1 mph - N/A   Clear
7:33 PM 12.2 °F 0.7 °F 6.8 °F 79% 30.65 in 10.0 mi North 8.1 mph - N/A   Clear
7:53 PM 12.2 °F 1.7 °F 5.0 °F 73% 30.66 in 10.0 mi North 6.9 mph - N/A   Clear
8:14 PM 12.2 °F 2.9 °F 5.0 °F 73% 30.66 in 10.0 mi North 5.8 mph - N/A   Clear
8:33 PM 10.4 °F 0.8 °F 5.0 °F 79% 30.67 in 10.0 mi North 5.8 mph - N/A   Clear
8:53 PM 10.4 °F 0.8 °F 5.0 °F 79% 30.67 in 10.0 mi North 5.8 mph - N/A   Clear
9:13 PM 10.4 °F 2.2 °F 5.0 °F 79% 30.68 in 10.0 mi North 4.6 mph - N/A   Clear
9:33 PM 10.4 °F 4.0 °F 5.0 °F 79% 30.68 in 10.0 mi North 3.5 mph - N/A   Clear
9:54 PM 8.6 °F 0.1 °F 5.0 °F 85% 30.69 in 10.0 mi North 4.6 mph - N/A   Clear
10:13 PM 8.6 °F 0.1 °F 5.0 °F 85% 30.70 in 10.0 mi NNW 4.6 mph - N/A   Clear
10:33 PM 8.6 °F -1.3 °F 3.2 °F 79% 30.71 in 10.0 mi NNW 5.8 mph - N/A   Clear
10:53 PM 8.6 °F 2.0 °F 3.2 °F 79% 30.72 in 10.0 mi North 3.5 mph - N/A   Clear
11:13 PM 6.8 °F -4.8 °F 3.2 °F 85% 30.71 in 10.0 mi NNW 6.9 mph - N/A   Clear
11:33 PM 8.6 °F -1.3 °F 3.2 °F 79% 30.72 in 10.0 mi NNW 5.8 mph - N/A   Clear
11:53 PM 8.6 °F -1.3 °F 3.2 °F 79% 30.73 in 10.0 mi NNW 5.8 mph - N/A   Clear